Location: Malvern Link
(52.1333°N, 2.3000°W)
Time: 18:59:15
(UTC+00:00)

Cosmos 1092 Rocket - Pass Details

Date: 18 September 2020
Orbit: 954 x 995 km, 82.9° (Epoch: 22 October)

Event Time Altitude Azimuth Distance (km) Brightness Sun altitude
Rises 19:47:14 0° 351° (N) 3,646 7.4 -14.4°
Reaches altitude 10° 19:49:48 10° 356° (N) 2,698 6.7 -14.8°
Maximum altitude 19:55:51 55° 74° (ENE) 1,144 4.1 -15.7°
Enters shadow 20:00:16 19° 147° (SSE) 2,125 5.3 -16.3°
